period_start,C,m1,H,J0,J1,J2,J3,J4,J5,JA,JB,JC,JD,JJ,JK,JN,#
2013-12-11 00:00:17,0.03,2.61,0.00,25.58,27.10,30.02,5.88,31.88,1018.58,2041.99,2391.04,2742.99,2874.00,349.63,321.06,22.01,0000 0000 0000 0000 000000
2013-12-11 00:01:17,0.01,2.61,0.00,25.65,27.10,30.01,6.04,32.00,1018.60,2041.98,2391.01,2742.97,2874.00,350.17,322.50,22.02,0000 0000 0000 0000 000000
2013-12-11 00:02:17,-0.01,2.61,0.00,25.70,27.10,29.97,5.92,31.79,1018.59,2041.98,2391.00,2742.95,2874.00,350.51,321.73,22.03,0000 0000 0000 0000 000000
2013-12-11 00:03:18,0.01,2.61,0.00,25.74,27.10,29.98,5.88,32.29,1018.59,2041.98,2390.96,2742.79,2873.99,348.71,320.42,22.03,0000 0000 0000 0000 000000
2013-12-11 00:04:18,0.06,2.61,0.00,25.76,27.10,30.00,5.78,32.00,1018.59,2041.99,2390.89,2742.59,2873.94,349.08,321.60,22.04,0000 0000 0000 0000 000000
2013-12-11 00:05:18,0.09,2.61,0.00,25.70,27.10,29.98,5.96,32.29,1018.61,2041.99,2390.60,2742.36,2873.70,349.94,321.61,22.04,0000 0000 0000 0000 000000
2013-12-11 00:06:18,0.17,2.61,0.00,25.61,27.10,29.99,5.88,31.92,1018.64,2041.99,2390.28,2742.16,2873.37,349.60,321.41,22.05,0000 0000 0000 0000 000000
2013-12-11 00:07:18,0.17,2.61,0.00,25.62,27.10,30.00,5.92,32.29,1018.73,2041.99,2390.12,2742.08,2873.18,350.00,321.80,22.06,0000 0000 0000 0000 000000
2013-12-11 00:08:19,0.08,2.61,0.00,25.68,27.10,30.01,5.86,32.04,1018.85,2041.99,2390.04,2742.04,2873.09,348.95,321.39,22.06,0000 0000 0000 0000 000000
2013-12-11 00:09:19,0.04,2.61,0.00,25.64,27.10,29.99,6.05,32.42,1018.90,2041.99,2390.01,2742.02,2873.04,350.55,322.33,22.07,0000 0000 0000 0000 000000
2013-12-11 00:10:19,0.01,2.61,0.00,25.69,27.10,29.99,5.92,32.25,1018.99,2041.98,2390.00,2742.00,2873.01,349.06,320.93,22.07,0000 0000 0000 0000 000000
2013-12-11 00:11:20,-0.00,2.61,0.00,25.70,27.10,29.98,5.83,32.04,1019.04,2041.98,2389.99,2742.00,2873.00,349.63,321.32,22.08,0000 0000 0000 0000 000000
2013-12-11 00:12:20,0.00,2.61,0.00,25.72,27.10,29.99,5.92,32.00,1019.03,2041.97,2389.90,2742.00,2873.00,350.03,322.20,22.09,0000 0000 0000 0000 000000
2013-12-11 00:13:20,0.03,2.61,0.00,25.80,27.10,30.03,5.82,32.00,1019.06,2041.98,2389.70,2741.96,2872.98,349.22,321.05,22.09,0000 0000 0000 0000 000000
2013-12-11 00:14:20,0.08,2.61,0.00,25.85,27.10,30.03,6.02,31.92,1019.05,2041.98,2389.30,2741.73,2872.79,350.19,322.10,22.10,0000 0000 0000 0000 000000
2013-12-11 00:15:20,0.18,2.61,0.00,25.92,27.10,30.00,5.86,32.33,1019.03,2041.97,2389.12,2741.30,2872.40,349.41,321.01,22.10,0000 0000 0000 0000 000000
2013-12-11 00:16:21,0.19,2.61,0.00,25.95,27.10,30.02,5.97,32.04,1019.03,2041.97,2389.04,2741.11,2872.17,349.54,321.28,22.11,0000 0000 0000 0000 000000
2013-12-11 00:17:21,0.11,2.61,0.00,25.91,27.10,30.02,5.95,32.04,1019.05,2041.98,2389.01,2741.04,2872.06,350.33,321.83,22.11,0000 0000 0000 0000 000000
2013-12-11 00:18:21,0.05,2.61,0.00,25.85,27.10,30.04,6.02,32.13,1019.06,2041.97,2389.00,2741.01,2872.03,350.84,322.42,22.12,0000 0000 0000 0000 000000
2013-12-11 00:19:21,0.02,2.61,0.00,25.82,27.11,30.04,6.03,32.00,1019.06,2041.97,2388.97,2741.00,2872.01,349.96,321.65,22.13,0000 0000 0000 0000 000000
2013-12-11 00:20:22,0.01,2.61,0.00,25.86,27.11,30.02,5.94,31.88,1019.06,2041.98,2388.91,2741.00,2872.00,349.61,321.35,22.13,0000 0000 0000 0000 000000
2013-12-11 00:21:22,0.03,2.61,0.00,25.76,27.11,29.99,5.86,32.21,1019.06,2041.98,2388.55,2740.98,2872.00,349.11,320.63,22.14,0000 0000 0000 0000 000000
2013-12-11 00:22:22,0.07,2.62,0.00,25.85,27.11,29.99,5.88,32.21,1019.06,2041.95,2388.23,2740.98,2871.98,349.44,321.06,22.14,0000 0000 0000 0000 000000
2013-12-11 00:23:22,0.06,2.62,0.00,25.94,27.11,30.00,5.97,32.75,1019.06,2041.95,2388.08,2740.93,2871.92,350.69,322.07,22.15,0000 0000 0000 0000 000000
2013-12-11 00:24:23,0.04,2.62,0.00,25.92,27.11,30.02,5.98,32.04,1019.07,2041.96,2388.03,2740.80,2871.80,350.31,322.05,22.16,0000 0000 0000 0000 000000
2013-12-11 00:25:23,0.10,2.62,0.00,25.92,27.11,30.01,5.88,31.96,1019.06,2041.97,2388.01,2740.53,2871.42,349.91,321.90,22.16,0000 0000 0000 0000 000000
2013-12-11 00:26:23,0.14,2.62,0.00,26.02,27.12,30.01,5.85,32.13,1019.06,2041.96,2388.00,2740.26,2871.17,350.89,322.29,22.17,0000 0000 0000 0000 000000
2013-12-11 00:27:24,0.10,2.62,0.00,26.03,27.12,30.00,6.01,31.96,1019.06,2041.97,2387.98,2740.12,2871.06,350.33,321.76,22.17,0000 0000 0000 0000 000000
2013-12-11 00:28:24,0.06,2.62,0.00,26.04,27.12,30.00,6.04,31.71,1019.07,2041.98,2387.89,2740.05,2871.02,351.59,322.91,22.18,0000 0000 0000 0000 000000
2013-12-11 00:29:24,0.04,2.62,0.00,26.04,27.12,30.04,6.07,31.92,1019.09,2041.95,2387.56,2740.02,2871.00,350.42,321.84,22.18,0000 0000 0000 0000 000000
2013-12-11 00:30:24,0.08,2.62,0.00,26.07,27.12,30.06,5.93,32.13,1019.12,2041.97,2387.27,2740.00,2871.00,349.01,320.53,22.19,0000 0000 0000 0000 000000
2013-12-11 00:31:24,0.07,2.62,0.00,26.12,27.12,30.08,5.87,32.17,1019.17,2041.98,2387.11,2739.99,2870.99,349.03,320.51,22.20,0000 0000 0000 0000 000000
2013-12-11 00:32:25,0.04,2.62,0.00,26.12,27.12,30.06,5.84,32.13,1019.24,2041.95,2387.04,2739.98,2870.96,349.65,320.85,22.20,0000 0000 0000 0000 000000
2013-12-11 00:33:25,-0.01,2.62,0.00,26.08,27.12,30.03,5.88,32.13,1019.33,2041.94,2387.01,2739.97,2870.86,349.86,321.17,22.21,0000 0000 0000 0000 000000
2013-12-11 00:34:25,0.04,2.62,0.00,25.96,27.12,30.02,6.02,32.29,1019.41,2041.94,2387.00,2739.89,2870.57,350.63,321.99,22.21,0000 0000 0000 0000 000000
2013-12-11 00:35:25,0.06,2.62,0.00,25.89,27.12,30.03,5.94,32.42,1019.41,2041.95,2386.97,2739.78,2870.33,349.30,321.07,22.22,0000 0000 0000 0000 000000
2013-12-11 00:36:26,0.11,2.62,0.00,25.83,27.12,30.05,5.80,32.04,1019.40,2041.96,2386.91,2739.49,2870.17,349.47,321.30,22.23,0000 0000 0000 0000 000000
2013-12-11 00:37:26,0.13,2.62,0.00,25.79,27.12,30.02,5.90,31.88,1019.43,2041.96,2386.81,2739.28,2870.09,350.39,322.22,22.23,0000 0000 0000 0000 000000
2013-12-11 00:38:26,0.13,2.62,0.00,25.75,27.12,30.03,5.66,31.96,1019.47,2041.96,2386.46,2739.14,2870.04,348.29,320.21,22.24,0000 0000 0000 0000 000000
2013-12-11 00:39:27,0.10,2.62,0.00,25.82,27.12,30.00,5.84,31.63,1019.53,2041.97,2386.22,2739.07,2870.01,349.19,321.09,22.24,0000 0000 0000 0000 000000
2013-12-11 00:40:27,0.06,2.62,0.00,25.88,27.12,30.01,5.88,31.67,1019.55,2041.96,2386.09,2739.02,2870.00,348.72,321.09,22.25,0000 0000 0000 0000 000000
2013-12-11 00:41:27,0.02,2.62,0.00,25.87,27.12,30.03,5.91,31.67,1019.55,2041.95,2386.03,2739.00,2870.00,349.89,321.56,22.25,0000 0000 0000 0000 000000
2013-12-11 00:42:27,0.02,2.62,0.00,25.82,27.12,29.99,5.85,31.88,1019.54,2041.95,2386.01,2739.00,2870.00,349.34,321.63,22.26,0000 0000 0000 0000 000000
2013-12-11 00:43:28,0.01,2.62,0.00,25.85,27.12,30.01,5.92,31.38,1019.55,2041.94,2386.00,2739.00,2869.96,350.03,323.00,22.27,0000 0000 0000 0000 000000
2013-12-11 00:44:28,0.01,2.62,0.00,25.85,27.12,30.02,5.83,31.96,1019.55,2041.97,2385.95,2738.96,2869.68,349.00,320.21,22.27,0000 0000 0000 0000 000000
2013-12-11 00:45:28,0.07,2.62,0.00,25.83,27.12,30.00,6.03,32.17,1019.55,2041.95,2385.75,2738.88,2869.39,350.53,322.31,22.28,0000 0000 0000 0000 000000
2013-12-11 00:46:28,0.13,2.63,0.00,25.79,27.12,29.99,5.86,31.96,1019.55,2041.96,2385.42,2738.78,2869.15,349.13,321.07,22.28,0000 0000 0000 0000 000000
2013-12-11 00:47:29,0.09,2.63,0.00,25.86,27.12,29.99,5.89,31.88,1019.55,2041.94,2385.19,2738.64,2869.05,349.61,321.43,22.29,0000 0000 0000 0000 000000
2013-12-11 00:48:29,0.10,2.63,0.00,25.98,27.12,30.01,6.07,32.00,1019.55,2041.94,2385.08,2738.38,2869.02,350.45,322.08,22.30,0000 0000 0000 0000 000000
2013-12-11 00:49:29,0.11,2.63,0.00,26.09,27.12,30.01,5.98,31.75,1019.55,2041.96,2385.03,2738.17,2869.01,350.11,321.66,22.30,0000 0000 0000 0000 000000
2013-12-11 00:50:29,0.08,2.63,0.00,26.15,27.12,30.01,5.89,31.38,1019.55,2041.96,2385.01,2738.07,2869.00,350.63,322.24,22.31,0000 0000 0000 0000 000000
2013-12-11 00:51:30,0.03,2.63,0.00,26.17,27.12,30.04,5.77,32.00,1019.55,2041.96,2385.00,2738.02,2869.00,348.96,320.51,22.31,0000 0000 0000 0000 000000
2013-12-11 00:52:30,0.02,2.63,0.00,26.21,27.12,30.07,5.97,31.79,1019.55,2041.96,2384.99,2738.02,2868.98,350.27,321.34,22.32,0000 0000 0000 0000 000000
2013-12-11 00:53:30,-0.01,2.63,0.00,26.11,27.12,30.08,6.00,32.33,1019.55,2041.94,2384.96,2738.00,2868.96,350.47,321.63,22.33,0000 0000 0000 0000 000000
2013-12-11 00:54:30,-0.01,2.63,0.00,26.15,27.12,30.04,5.88,31.92,1019.55,2041.94,2384.75,2738.00,2868.85,350.23,321.60,22.33,0000 0000 0000 0000 000000
2013-12-11 00:55:31,0.08,2.63,0.00,26.09,27.12,30.05,6.03,31.88,1019.55,2041.95,2384.43,2738.00,2868.52,348.85,320.49,22.34,0000 0000 0000 0000 000000
2013-12-11 00:56:31,0.15,2.63,0.00,26.00,27.12,30.04,5.98,32.08,1019.55,2041.94,2384.19,2737.94,2868.30,349.79,321.54,22.34,0000 0000 0000 0000 000000
2013-12-11 00:57:31,0.09,2.63,0.00,25.90,27.12,30.02,5.78,31.79,1019.55,2041.90,2384.08,2737.94,2868.14,350.02,321.77,22.35,0000 0000 0000 0000 000000
2013-12-11 00:58:32,0.02,2.63,0.00,25.91,27.12,30.05,5.87,31.42,1019.55,2041.90,2384.04,2737.89,2868.07,350.98,322.64,22.35,0000 0000 0000 0000 000000
2013-12-11 00:59:32,0.04,2.63,0.00,26.01,27.12,30.04,6.00,31.67,1019.55,2041.92,2384.01,2737.54,2868.03,351.35,322.63,22.36,0000 0000 0000 0000 000000
2013-12-11 01:00:32,0.10,2.63,0.00,26.01,27.12,30.07,5.88,31.83,1019.55,2041.91,2384.00,2737.26,2868.01,349.19,321.39,22.37,0000 0000 0000 0000 000000
2013-12-11 01:01:32,0.09,2.63,0.00,26.03,27.12,30.07,5.87,31.96,1019.56,2041.92,2384.00,2737.11,2868.00,349.62,321.28,22.37,0000 0000 0000 0000 000000
2013-12-11 01:02:33,0.05,2.63,0.00,26.11,27.12,30.06,5.93,31.75,1019.58,2041.91,2383.93,2737.05,2867.99,350.24,321.72,22.38,0000 0000 0000 0000 000000
2013-12-11 01:03:33,0.03,2.63,0.00,26.11,27.12,30.05,5.93,32.04,1019.56,2041.90,2383.68,2737.01,2867.95,350.12,321.26,22.38,0000 0000 0000 0000 000000
2013-12-11 01:04:33,0.04,2.63,0.00,26.03,27.12,30.03,5.86,31.67,1019.55,2041.89,2383.32,2737.00,2867.80,348.57,320.29,22.39,0000 0000 0000 0000 000000
2013-12-11 01:05:33,0.09,2.63,0.00,25.94,27.12,30.05,6.17,32.17,1019.55,2041.82,2383.11,2737.00,2867.47,350.83,322.47,22.40,0000 0000 0000 0000 000000
2013-12-11 01:06:34,0.00,2.63,0.00,25.93,27.13,30.04,5.92,32.13,1019.55,2041.82,2383.04,2736.99,2867.23,350.51,322.19,22.40,0000 0000 0000 0000 000000
2013-12-11 01:07:34,0.11,2.63,0.00,26.02,27.13,30.07,5.94,31.67,1019.55,2041.85,2383.01,2736.95,2867.12,350.50,322.08,22.41,0000 0000 0000 0000 000000
2013-12-11 01:08:34,0.05,2.63,0.00,26.12,27.13,30.06,5.88,31.54,1019.55,2041.90,2383.00,2736.93,2867.05,350.16,321.67,22.41,0000 0000 0000 0000 000000
2013-12-11 01:09:35,0.06,2.63,0.00,26.17,27.14,30.07,5.95,32.00,1019.55,2041.84,2382.99,2736.83,2867.02,349.82,321.29,22.42,0000 0000 0000 0000 000000
2013-12-11 01:10:35,-0.03,2.63,0.00,26.16,27.14,30.07,6.05,32.29,1019.55,2041.83,2382.97,2736.50,2867.00,350.55,322.16,22.43,0000 0000 0000 0000 000000
2013-12-11 01:11:35,0.09,2.63,0.00,26.13,27.14,30.09,5.93,31.88,1019.55,2041.82,2382.78,2736.23,2867.00,349.53,321.35,22.43,0000 0000 0000 0000 000000
2013-12-11 01:12:35,0.14,2.64,0.00,26.18,27.14,30.08,5.96,32.33,1019.56,2041.87,2382.49,2736.09,2867.00,350.49,321.90,22.44,0000 0000 0000 0000 000000
2013-12-11 01:13:35,0.15,2.64,0.00,26.12,27.14,30.08,5.97,32.17,1019.56,2041.91,2382.22,2736.04,2867.00,349.61,321.44,22.44,0000 0000 0000 0000 000000
2013-12-11 01:14:36,0.09,2.64,0.00,26.19,27.14,30.09,5.78,31.83,1019.55,2041.91,2382.09,2736.01,2866.91,348.68,320.22,22.45,0000 0000 0000 0000 000000
2013-12-11 01:15:36,0.04,2.64,0.00,26.23,27.14,30.09,5.93,32.29,1019.55,2041.90,2382.04,2736.01,2866.75,349.11,321.06,22.45,0000 0000 0000 0000 000000
2013-12-11 01:16:36,0.05,2.64,0.00,26.23,27.15,30.10,5.89,31.88,1019.55,2041.90,2382.01,2736.00,2866.41,349.86,321.39,22.46,0000 0000 0000 0000 000000
2013-12-11 01:17:37,0.04,2.64,0.00,26.20,27.15,30.11,5.91,31.83,1019.55,2041.88,2382.00,2736.00,2866.19,348.12,319.69,22.47,0000 0000 0000 0000 000000
2013-12-11 01:18:37,0.04,2.64,0.00,26.22,27.15,30.10,5.92,31.92,1019.55,2041.93,2382.00,2735.99,2866.09,350.05,321.19,22.47,0000 0000 0000 0000 000000
2013-12-11 01:19:37,0.06,2.64,0.00,26.24,27.15,30.12,5.88,32.42,1019.55,2041.93,2381.98,2735.98,2866.03,349.70,321.40,22.48,0000 0000 0000 0000 000000
2013-12-11 01:20:37,0.01,2.64,0.00,26.32,27.15,30.13,5.90,31.88,1019.55,2041.83,2381.71,2735.89,2866.01,350.07,320.99,22.48,0000 0000 0000 0000 000000
2013-12-11 01:21:38,0.02,2.64,0.00,26.29,27.15,30.13,5.98,32.54,1019.55,2041.78,2381.33,2735.64,2866.00,350.11,321.25,22.49,0000 0000 0000 0000 000000
2013-12-11 01:22:38,0.08,2.64,0.00,26.27,27.15,30.13,5.89,32.00,1019.55,2041.73,2381.12,2735.30,2865.99,350.54,321.26,22.50,0000 0000 0000 0000 000000
2013-12-11 01:23:38,0.11,2.64,0.00,26.22,27.15,30.10,5.88,32.29,1019.55,2041.68,2381.04,2735.13,2865.95,350.43,322.04,22.50,0000 0000 0000 0000 000000
2013-12-11 01:24:38,0.03,2.64,0.00,26.24,27.15,30.10,5.82,32.33,1019.55,2041.58,2381.01,2735.05,2865.84,349.30,320.75,22.51,0000 0000 0000 0000 000000
2013-12-11 01:25:38,-0.06,2.64,0.00,26.27,27.15,30.12,6.05,32.25,1019.55,2041.47,2380.99,2735.01,2865.55,350.09,321.43,22.51,0000 0000 0000 0000 000000
2013-12-11 01:26:39,-0.02,2.64,0.00,26.30,27.15,30.10,5.81,31.96,1019.55,2041.36,2380.94,2735.00,2865.21,349.45,320.61,22.52,0000 0000 0000 0000 000000
2013-12-11 01:27:39,-0.04,2.64,0.00,26.19,27.15,30.12,6.08,32.17,1019.55,2041.36,2380.83,2734.99,2865.07,351.58,322.88,22.52,0000 0000 0000 0000 000000
2013-12-11 01:28:39,0.12,2.64,0.00,26.15,27.15,30.08,5.88,32.08,1019.55,2041.30,2380.54,2734.96,2865.03,350.36,321.82,22.53,0000 0000 0000 0000 000000
2013-12-11 01:29:39,-0.02,2.64,0.00,26.19,27.15,30.11,5.82,31.88,1019.55,2041.27,2380.29,2734.96,2865.00,349.13,320.96,22.54,0000 0000 0000 0000 000000
2013-12-11 01:30:40,0.03,2.64,0.00,26.26,27.15,30.09,5.90,31.96,1019.55,2041.28,2380.17,2734.82,2865.00,350.24,321.38,22.54,0000 0000 0000 0000 000000
2013-12-11 01:31:40,0.08,2.64,0.00,26.32,27.15,30.09,5.95,31.75,1019.58,2041.34,2380.08,2734.56,2865.00,349.68,321.23,22.55,0000 0000 0000 0000 000000
2013-12-11 01:32:40,0.20,2.64,0.00,26.33,27.15,30.12,5.93,32.17,1019.61,2041.27,2380.03,2734.31,2864.98,350.09,321.64,22.55,0000 0000 0000 0000 000000
2013-12-11 01:33:41,-0.03,2.64,0.00,26.29,27.15,30.13,5.86,32.21,1019.65,2041.16,2380.00,2734.14,2864.80,349.47,320.87,22.56,0000 0000 0000 0000 000000
2013-12-11 01:34:41,0.01,2.64,0.00,26.23,27.15,30.09,5.91,31.38,1019.58,2041.16,2379.98,2734.05,2864.54,350.45,321.82,22.57,0000 0000 0000 0000 000000
2013-12-11 01:35:41,0.05,2.64,0.00,26.24,27.15,30.09,5.90,31.92,1019.62,2041.21,2379.98,2734.01,2864.33,350.35,321.72,22.57,0000 0000 0000 0000 000000
2013-12-11 01:36:41,0.11,2.64,0.00,26.33,27.15,30.11,5.88,31.50,1019.66,2041.38,2379.96,2734.00,2864.18,350.17,321.48,22.58,0000 0000 0000 0000 000000
2013-12-11 01:37:42,0.19,2.64,0.00,26.34,27.16,30.09,5.93,31.46,1019.59,2041.42,2379.85,2734.00,2864.09,351.40,322.58,22.58,0000 0000 0000 0000 000000
2013-12-11 01:38:42,0.04,2.64,0.00,26.38,27.16,30.09,5.86,31.67,1019.70,2041.39,2379.60,2733.99,2864.03,351.35,322.47,22.59,0000 0000 0000 0000 000000
2013-12-11 01:39:42,0.04,2.64,0.00,26.36,27.17,30.15,5.96,32.17,1019.74,2041.34,2379.34,2733.97,2864.01,350.21,321.42,22.60,0000 0000 0000 0000 000000
2013-12-11 01:40:42,0.02,2.64,0.00,26.31,27.17,30.14,5.96,31.88,1019.89,2041.22,2379.14,2733.96,2864.00,350.00,321.34,22.60,0000 0000 0000 0000 000000
2013-12-11 01:41:43,-0.04,2.64,0.00,26.36,27.17,30.16,5.93,31.88,1019.92,2041.19,2379.05,2733.84,2863.99,350.75,322.15,22.61,0000 0000 0000 0000 000000
2013-12-11 01:42:43,-0.01,2.64,0.00,26.29,27.17,30.12,6.06,32.25,1019.93,2041.11,2379.01,2733.63,2863.97,351.46,322.78,22.61,0000 0000 0000 0000 000000
2013-12-11 01:43:43,0.02,2.64,0.00,26.27,27.17,30.14,5.88,31.79,1019.96,2041.12,2378.99,2733.31,2863.93,349.25,320.80,22.62,0000 0000 0000 0000 000000
2013-12-11 01:44:44,0.10,2.64,0.00,26.28,27.17,30.13,5.88,32.38,1019.96,2041.10,2378.96,2733.12,2863.76,350.15,321.61,22.62,0000 0000 0000 0000 000000
2013-12-11 01:45:44,0.09,2.65,0.00,26.31,27.17,30.11,5.87,31.46,1020.00,2041.11,2378.91,2733.05,2863.45,350.16,321.60,22.63,0000 0000 0000 0000 000000
2013-12-11 01:46:44,0.09,2.65,0.00,26.35,27.17,30.13,5.71,31.96,1020.00,2041.12,2378.66,2733.02,2863.22,348.84,320.34,22.64,0000 0000 0000 0000 000000
2013-12-11 01:47:44,0.13,2.65,0.00,26.39,27.17,30.12,5.85,32.17,1020.01,2041.17,2378.31,2733.00,2863.08,349.82,321.19,22.64,0000 0000 0000 0000 000000
2013-12-11 01:48:45,0.11,2.65,0.00,26.35,27.17,30.11,5.92,31.54,1020.03,2041.18,2378.14,2733.00,2863.04,349.62,320.85,22.65,0000 0000 0000 0000 000000
2013-12-11 01:49:45,0.04,2.65,0.00,26.33,27.17,30.13,5.84,32.38,1020.02,2041.16,2378.05,2733.00,2863.02,350.23,321.74,22.65,0000 0000 0000 0000 000000
2013-12-11 01:50:45,0.01,2.65,0.00,26.36,27.17,30.13,6.03,31.96,1020.03,2041.22,2378.01,2732.99,2863.00,350.35,321.43,22.66,0000 0000 0000 0000 000000
2013-12-11 01:51:45,0.04,2.65,0.00,26.39,27.17,30.14,5.94,31.88,1020.03,2041.16,2378.00,2732.98,2863.00,349.86,321.21,22.67,0000 0000 0000 0000 000000
2013-12-11 01:52:46,-0.04,2.65,0.00,26.38,27.17,30.12,5.93,31.92,1020.03,2041.16,2378.00,2732.97,2862.99,350.50,321.84,22.67,0000 0000 0000 0000 000000
2013-12-11 01:53:46,0.01,2.65,0.00,26.37,27.17,30.13,5.93,32.00,1020.03,2041.16,2378.00,2732.89,2862.99,350.85,321.83,22.68,0000 0000 0000 0000 000000
2013-12-11 01:54:46,0.04,2.65,0.00,26.39,27.17,30.13,5.90,32.08,1020.03,2041.15,2377.98,2732.74,2862.93,350.12,321.19,22.68,0000 0000 0000 0000 000000
2013-12-11 01:55:46,0.04,2.65,0.00,26.41,27.17,30.14,5.97,32.17,1020.03,2041.15,2377.82,2732.38,2862.68,350.60,321.85,22.69,0000 0000 0000 0000 000000
2013-12-11 01:56:46,0.20,2.65,0.00,26.44,27.17,30.15,5.75,31.42,1020.03,2041.13,2377.58,2732.14,2862.40,349.36,320.17,22.69,0000 0000 0000 0000 000000
2013-12-11 01:57:47,0.15,2.65,0.00,26.46,27.17,30.17,5.91,31.58,1020.03,2041.10,2377.29,2732.05,2862.20,350.45,321.13,22.70,0000 0000 0000 0000 000000
2013-12-11 01:58:47,0.09,2.65,0.00,26.44,27.17,30.13,6.02,32.17,1020.03,2041.20,2377.13,2732.04,2862.11,349.96,321.49,22.71,0000 0000 0000 0000 000000
2013-12-11 01:59:47,0.16,2.65,0.00,26.43,27.17,30.15,5.93,32.33,1020.03,2041.17,2377.05,2732.01,2862.05,350.18,321.67,22.71,0000 0000 0000 0000 000000
2013-12-11 02:00:47,-0.05,2.65,0.00,26.46,27.17,30.14,5.75,31.58,1020.03,2041.20,2377.01,2732.00,2862.01,349.74,321.51,22.72,0000 0000 0000 0000 000000
2013-12-11 02:01:47,0.08,2.65,0.00,26.44,27.17,30.11,5.97,32.17,1020.03,2041.20,2377.00,2732.00,2862.00,350.65,322.30,22.72,0000 0000 0000 0000 000000
2013-12-11 02:02:48,-0.02,2.65,0.00,26.40,27.18,30.16,5.98,31.71,1020.03,2041.17,2377.00,2731.99,2862.00,350.34,321.65,22.73,0000 0000 0000 0000 000000
2013-12-11 02:03:48,-0.01,2.65,0.00,26.40,27.18,30.14,5.82,32.08,1020.03,2041.12,2376.99,2731.93,2861.99,349.96,321.15,22.74,0000 0000 0000 0000 000000
2013-12-11 02:04:48,-0.01,2.65,0.00,26.35,27.18,30.13,5.90,31.96,1020.03,2041.11,2376.92,2731.93,2861.97,350.65,322.01,22.74,0000 0000 0000 0000 000000
2013-12-11 02:05:48,0.00,2.65,0.00,26.31,27.18,30.13,5.81,32.29,1020.03,2041.08,2376.63,2731.87,2861.90,348.83,320.39,22.75,0000 0000 0000 0000 000000
2013-12-11 02:06:48,0.06,2.65,0.00,26.40,27.18,30.14,5.83,32.38,1020.03,2041.11,2376.26,2731.53,2861.59,350.63,321.95,22.75,0000 0000 0000 0000 000000
2013-12-11 02:07:49,0.30,2.65,0.00,26.48,27.18,30.14,5.96,32.29,1020.03,2041.08,2376.10,2731.21,2861.30,350.88,322.09,22.76,0000 0000 0000 0000 000000
2013-12-11 02:08:49,0.13,2.65,0.00,26.47,27.18,30.16,6.05,32.46,1020.03,2041.05,2376.04,2731.07,2861.13,350.91,322.12,22.76,0000 0000 0000 0000 000000
2013-12-11 02:09:49,0.02,2.65,0.00,26.46,27.18,30.14,5.98,32.29,1020.03,2041.05,2376.01,2731.03,2861.06,349.81,321.13,22.77,0000 0000 0000 0000 000000
2013-12-11 02:10:49,0.05,2.65,0.00,26.41,27.19,30.14,5.99,31.83,1020.03,2041.07,2376.00,2731.00,2861.02,349.30,320.71,22.78,0000 0000 0000 0000 000000
2013-12-11 02:11:50,0.01,2.66,0.00,26.31,27.19,30.13,5.94,31.83,1020.03,2041.09,2376.00,2731.00,2861.00,349.67,320.94,22.78,0000 0000 0000 0000 000000
2013-12-11 02:12:50,0.01,2.66,0.00,26.27,27.19,30.12,5.92,32.58,1020.03,2041.05,2375.99,2731.00,2861.00,350.20,322.52,22.79,0000 0000 0000 0000 000000
2013-12-11 02:13:50,-0.02,2.65,0.00,26.34,27.19,30.13,5.88,31.54,1020.03,2041.05,2375.83,2730.98,2861.00,349.53,321.02,22.79,0000 0000 0000 0000 000000
2013-12-11 02:14:50,0.05,2.66,0.00,26.33,27.20,30.12,6.01,31.79,1020.03,2041.06,2375.50,2730.96,2860.98,350.50,321.57,22.80,0000 0000 0000 0000 000000
2013-12-11 02:15:50,0.10,2.66,0.00,26.38,27.20,30.15,5.98,31.88,1020.03,2041.07,2375.27,2730.96,2860.96,350.96,322.27,22.81,0000 0000 0000 0000 000000
2013-12-11 02:16:51,0.04,2.66,0.00,26.39,27.20,30.14,5.92,31.96,1020.04,2041.05,2375.12,2730.90,2860.81,350.58,322.23,22.81,0000 0000 0000 0000 000000
2013-12-11 02:17:51,0.06,2.66,0.00,26.37,27.20,30.15,6.06,32.04,1020.04,2041.05,2375.05,2730.78,2860.58,350.80,321.82,22.82,0000 0000 0000 0000 000000
2013-12-11 02:18:51,0.08,2.66,0.00,26.37,27.20,30.16,5.73,31.88,1020.05,2041.05,2375.02,2730.55,2860.33,348.78,320.55,22.82,0000 0000 0000 0000 000000
2013-12-11 02:19:51,0.13,2.66,0.00,26.42,27.20,30.16,5.78,31.83,1020.04,2041.06,2375.00,2730.30,2860.13,349.25,320.66,22.83,0000 0000 0000 0000 000000
2013-12-11 02:20:52,0.13,2.66,0.00,26.47,27.20,30.19,5.90,31.88,1020.07,2041.06,2375.00,2730.14,2860.05,349.80,320.81,22.83,0000 0000 0000 0000 000000
2013-12-11 02:21:52,0.03,2.66,0.00,26.43,27.20,30.18,5.86,31.96,1020.06,2041.06,2374.99,2730.07,2860.01,350.22,321.55,22.84,0000 0000 0000 0000 000000
2013-12-11 02:22:52,0.02,2.66,0.00,26.45,27.20,30.18,5.85,31.88,1020.05,2041.05,2374.92,2730.03,2860.00,349.21,320.59,22.85,0000 0000 0000 0000 000000
2013-12-11 02:23:52,0.03,2.66,0.00,26.43,27.20,30.18,6.05,32.17,1020.08,2041.04,2374.68,2730.01,2860.00,350.60,321.82,22.85,0000 0000 0000 0000 000000
2013-12-11 02:24:53,0.06,2.66,0.00,26.44,27.20,30.15,5.81,31.83,1020.09,2041.02,2374.32,2730.00,2860.00,350.24,322.18,22.86,0000 0000 0000 0000 000000
2013-12-11 02:25:53,0.05,2.66,0.00,26.48,27.20,30.14,5.78,31.75,1020.05,2041.02,2374.12,2729.98,2859.95,349.11,320.79,22.86,0000 0000 0000 0000 000000
2013-12-11 02:26:53,0.06,2.66,0.00,26.47,27.20,30.15,5.96,32.17,1020.09,2041.02,2374.04,2729.98,2859.80,350.43,321.71,22.87,0000 0000 0000 0000 000000
2013-12-11 02:27:53,0.02,2.66,0.00,26.48,27.20,30.16,5.87,31.58,1020.10,2041.02,2374.01,2729.92,2859.53,349.51,320.85,22.88,0000 0000 0000 0000 000000
2013-12-11 02:28:54,0.09,2.66,0.00,26.46,27.20,30.18,5.99,32.00,1020.12,2041.03,2374.00,2729.63,2859.28,349.67,321.03,22.88,0000 0000 0000 0000 000000
2013-12-11 02:29:54,0.13,2.66,0.00,26.46,27.20,30.18,5.93,31.92,1020.19,2041.02,2374.00,2729.34,2859.11,350.93,322.20,22.89,0000 0000 0000 0000 000000
2013-12-11 02:30:54,0.11,2.66,0.00,26.50,27.20,30.17,5.96,31.79,1020.27,2041.00,2373.99,2729.15,2859.04,349.50,320.88,22.89,0000 0000 0000 0000 000000
2013-12-11 02:31:54,0.04,2.66,0.00,26.51,27.20,30.18,6.09,31.79,1020.25,2041.00,2373.86,2729.06,2859.01,350.08,321.35,22.90,0000 0000 0000 0000 000000
2013-12-11 02:32:54,0.06,2.66,0.00,26.51,27.20,30.23,5.88,31.67,1020.32,2041.00,2373.53,2729.03,2859.00,350.95,322.40,22.91,0000 0000 0000 0000 000000
2013-12-11 02:33:54,0.08,2.66,0.00,26.48,27.20,30.18,5.98,32.08,1020.40,2041.01,2373.28,2729.01,2858.99,349.48,320.92,22.91,0000 0000 0000 0000 000000
2013-12-11 02:34:55,0.06,2.66,0.00,26.49,27.20,30.20,5.98,31.92,1020.42,2041.01,2373.13,2729.00,2858.97,350.66,321.41,22.92,0000 0000 0000 0000 000000
2013-12-11 02:35:55,0.03,2.66,0.00,26.55,27.20,30.23,5.82,31.63,1020.45,2041.01,2373.05,2729.00,2858.98,348.99,320.44,22.92,0000 0000 0000 0000 000000